Location: Ceske Budejovice
(48.9830°N, 14.4670°E)
Time: 04:17:21
(UTC+02:00)

DX 1 - Pass Details

Date: 24 August 2019
Orbit: 619 x 631 km, 98.4° (Epoch: 23 October)

Event Time Altitude Azimuth Distance (km) Brightness Sun altitude
Rises 04:18:26 0° 162° (SSE) 2,883 ? -16.3°
Reaches altitude 10° 04:20:36 10° 161° (SSE) 1,983 ? -16.0°
Maximum altitude 04:24:55 84° 76° (ENE) 632 ? -15.4°
Drops below altitude 10° 04:29:17 10° 347° (NNW) 2,004 ? -14.9°
Sets 04:31:29 0° 347° (NNW) 2,917 ? -14.6°
